Regional Weather Roundup
Issued by NWS

Home | Current Version | Previous Version | Text Only | Print | Product List | Glossary Off
Versions: 1 2 3 4 5 6 7 8 9 10 11 12 13 14 15 16 17 18 19 20 21 22 23 24 25 26 27 28 29 30 31 32 33 34 35 36 37 38 39 40 41 42 43 44 45 46 47 48 49 50

000
ASUS45 KSLC 052010
RWRUT

UTAH REGIONAL WEATHER ROUNDUP
NATIONAL WEATHER SERVICE SALT LAKE CITY UT
200 PM MDT SUN JUL 05 2015

UTZ001>011-023>025-052100-

NORTHERN UTAH

CITY           SKY/WX    TMP DP  RH WIND       PRES   REMARKS
BRIGHAM CITY   PTSUNNY   77  60  56 SW6       30.06S
HILL AFB       PTSUNNY   78  56  46 VRB6      30.07F
LOGAN          PTSUNNY   71  62  73 N7        30.07F
OGDEN          PTSUNNY   80  56  43 SW3       30.04F
PROVO AIRPORT  MOSUNNY   81  54  39 CALM      30.05F
SALT LAKE CITY MOSUNNY   83  59  44 VRB3      30.02F
VERNAL         CLOUDY    75  54  47 SW3       30.10F
WENDOVER       PTSUNNY   86  52  30 NE10      30.01F
HEBER CITY     PTSUNNY   72  59  64 NW3       30.13F
WEST JORDAN    SUNNY     82  55  39 CALM      30.05F

$$

UTZ012>022-026-027-052100-

SOUTHERN/CENTRAL UTAH

CITY           SKY/WX    TMP DP  RH WIND       PRES   REMARKS
BLANDING       PTSUNNY   78  59  50 W6        30.22F
BRYCE CANYON   MOSUNNY   78  45  30 W18       30.28F
CEDAR CITY     PTSUNNY   72  53  51 SE12      30.14F
DELTA          SUNNY     89  41  18 N9        30.02F
HANKSVILLE     SUNNY     81  61  50 CALM      30.05F
MILFORD        LGT RAIN  83  48  29 W30G38    30.07R
MOAB/CYNLANDS  MOSUNNY   80  61  52 CALM      30.05F
PRICE          PTSUNNY   78  56  46 E6        30.13F
ST GEORGE      MOCLDY    97  48  19 W15G21    29.94F HX  93
KANAB          MOSUNNY   90  46  22 SW15G21   30.13F

$$

REGIONAL REPORTS     COLORADO/ARIZONA

CITY           SKY/WX    TMP DP  RH WIND       PRES   REMARKS
CRAIG, CO      LGT RAIN  68  55  63 W7        30.18F
GRAND JUNCTION PTSUNNY   75  59  57 VRB5      30.08F
RIFLE          CLOUDY    71  59  65 E6        30.13F
MONTROSE       CLOUDY    76  57  51 NE6       30.15F
CORTEZ         PTSUNNY   79  55  43 CALM      30.16F
PAGE, AZ       SUNNY     94  43  17 VRB7G18   30.00F HX  90
GRAND CANYON   PTSUNNY   76  45  33 W8        30.25F
KINGMAN        MOSUNNY   97  48  18 SW21G28   30.01F HX  93
FLAGSTAFF      TSTM      60  56  86 S6        30.30S

$$

REGIONAL REPORTS    NEVADA/IDAHO/WYOMING

CITY           SKY/WX    TMP DP  RH WIND       PRES   REMARKS
LAS VEGAS, NV  PTSUNNY  100  42  13 S16G25    29.84F HX  95
ELY            MOSUNNY   85  32  15 W16G25    30.16F
ELKO           MOSUNNY   80  51  36 W10G21    30.10F
POCATELLO, ID  MOSUNNY   80  49  33 S13       30.04F
BURLEY         CLOUDY    79  59  50 S7        30.00F
EVANSTON, WY   PTSUNNY   64  57  78 SW10      30.22F
ROCK SPRINGS   LGT RAIN  63  57  81 NW12      30.20S
KEMMERER       LGT RAIN  59  54  82 CALM      30.24F

$$



USA.gov is the U.S. government's official web portal to all federal, state and local government web resources and services.